Lapse_Rate
6.7 6.6 6.6 6.6 6.6 6.7 6.9 6.9 6.8 6.6 6.5 6.3 6.2 6.1 5.9 5.6 5.3 5.1 5.2 5.1 5.0 5.0 4.8 4.8 4.8 4.8 4.7 4.8 4.8 4.8 4.8 4.8 4.9 4.8 5.0 5.1 5.4 5.7 5.9 5.9 5.9 6.0 6.1
6.6 6.6 6.5 6.6 6.5 6.6 6.5 6.4 6.4 6.3 6.3 6.2 6.2 6.2 6.2 6.1 5.9 5.7 5.4 5.2 5.2 5.0 4.9 4.8 4.8 4.9 4.9 5.0 5.1 5.0 5.2 5.2 5.5 5.2 5.0 4.9 5.5 6.1 6.2 6.2 6.2 6.3 6.3
6.3 6.5 6.4 6.5 6.5 6.4 6.2 6.2 6.2 6.2 6.1 6.3 6.3 6.2 6.1 6.1 5.9 5.8 5.6 5.4 5.3 5.2 5.2 5.1 5.2 5.3 5.2 5.3 5.4 5.4 5.3 5.2 5.4 5.5 4.9 4.6 4.4 4.8 5.6 6.2 6.4 6.6 6.6
6.1 6.1 6.3 6.2 6.1 6.0 6.0 6.1 6.0 6.0 6.1 6.2 6.2 6.2 6.0 5.8 5.6 5.4 5.3 5.1 5.1 5.0 5.0 5.0 5.0 5.1 5.2 5.3 5.4 5.5 5.5 5.5 5.6 5.6 5.2 4.9 4.6 4.1 4.3 4.7 5.9 6.8 6.9
6.1 6.1 6.2 6.1 5.9 5.8 5.7 5.8 5.8 5.9 5.9 5.9 5.8 5.6 5.4 5.3 5.3 5.2 5.2 5.2 5.1 5.1 5.1 5.0 5.0 5.0 5.0 5.0 5.0 5.1 5.2 5.1 5.1 5.2 5.2 5.1 5.1 5.3 4.9 5.0 5.4 5.0 6.4
6.2 6.2 6.1 5.9 5.7 5.7 5.8 5.8 5.8 5.8 5.7 5.6 5.4 5.2 5.1 5.0 4.9 4.8 4.7 4.7 4.7 4.7 4.6 4.6 4.6 4.5 4.4 4.4 4.5 4.6 4.7 4.8 4.8 4.7 4.7 4.6 4.8 4.6 4.8 5.3 5.0 5.3 5.5
6.2 5.9 5.7 5.6 5.6 5.7 5.7 5.6 5.6 5.4 5.3 5.3 5.2 5.1 4.9 4.9 4.8 4.8 4.7 4.7 4.8 4.8 4.7 4.6 4.6 4.5 4.5 4.4 4.4 4.4 4.3 4.3 4.3 4.4 4.6 4.7 4.6 4.6 4.7 4.7 4.8 4.8 5.0
6.1 5.7 5.5 5.5 5.5 5.6 5.6 5.4 5.3 5.1 5.1 5.0 4.9 4.7 4.6 4.4 4.4 4.4 4.3 4.2 4.1 4.2 4.2 4.2 4.2 4.2 4.2 4.2 4.1 4.1 4.2 4.2 4.1 4.0 4.1 4.2 4.7 5.1 5.3 5.4 5.4 5.3 5.4
5.8 5.5 5.4 5.3 5.5 5.6 5.4 5.1 4.8 4.7 4.7 4.7 4.5 4.4 4.3 4.2 4.1 4.0 3.9 3.8 3.8 3.8 3.8 3.9 4.0 4.0 4.0 4.0 4.1 4.2 4.2 4.3 4.3 4.4 4.6 4.7 4.7 4.9 5.3 5.6 5.7 5.5 5.2
5.7 5.5 5.3 5.4 5.6 5.3 4.9 4.8 4.8 4.7 4.7 4.6 4.4 4.2 4.0 3.9 3.8 3.7 3.7 3.7 3.8 3.9 3.9 3.8 3.8 3.9 3.9 3.9 3.9 4.0 4.1 4.3 4.5 4.9 5.1 5.1 5.1 5.1 5.4 5.7 5.9 6.0 5.8
5.5 5.3 5.4 5.5 5.3 4.8 4.8 5.0 5.1 4.9 4.5 4.2 4.0 3.9 3.8 3.6 3.6 3.6 3.6 3.5 3.6 3.5 3.5 3.5 3.5 3.4 3.4 3.4 3.5 3.6 3.8 4.1 4.3 4.8 5.0 5.3 5.4 5.7 6.1 6.2 6.2 6.2 6.1
5.6 5.6 5.6 5.4 5.0 4.7 4.9 4.8 4.5 4.3 4.1 4.0 3.9 3.8 3.6 3.5 3.5 3.5 3.4 3.4 3.4 3.3 3.2 3.2 3.2 3.2 3.3 3.5 3.5 3.7 4.1 4.5 5.1 5.9 6.3 6.5 6.7 6.9 7.0 6.7 6.6 6.3 6.3
5.6 5.5 5.3 5.1 4.8 4.6 4.4 4.2 3.9 3.7 3.6 3.4 3.4 3.4 3.5 3.6 3.8 3.5 3.3 3.2 3.1 3.0 3.0 3.0 3.1 3.3 3.5 3.8 4.2 4.5 5.1 5.8 6.6 7.0 7.3 7.5 7.5 7.7 7.6 7.4 7.4 7.1 6.8
5.4 5.4 5.2 4.9 4.5 4.2 3.9 3.7 3.4 3.3 3.2 3.3 3.4 3.6 3.6 3.5 3.5 3.3 3.2 3.1 2.9 2.9 2.9 3.1 3.3 3.6 4.1 4.7 5.4 6.0 6.4 6.7 7.0 7.2 7.4 7.5 7.6 7.6 7.6 7.6 7.6 7.5 7.2
5.4 5.2 4.9 4.5 4.4 4.0 4.0 3.8 3.6 3.4 3.4 3.3 3.3 3.6 3.6 3.6 3.2 3.1 2.9 2.9 2.7 2.8 3.0 3.4 3.9 4.4 5.0 5.5 5.9 6.0 6.1 6.5 6.8 6.9 7.0 7.1 7.0 6.7 6.5 6.5 6.8 6.3 6.0
5.3 5.0 4.7 4.5 4.2 4.1 4.0 3.6 3.4 3.4 3.6 3.6 3.5 3.6 3.7 3.4 3.2 2.9 2.7 2.8 2.9 3.4 3.8 4.5 5.1 5.6 5.8 5.6 5.6 5.6 5.9 6.0 6.0 6.2 6.4 6.3 6.2 6.1 6.0 6.0 5.9 5.6 4.9
4.9 4.7 4.4 4.2 4.0 3.9 3.7 3.7 3.8 3.4 3.6 3.7 3.7 3.5 3.2 3.0 2.8 2.8 2.7 3.1 3.5 4.3 5.0 5.4 5.6 5.6 5.5 5.4 5.3 5.3 5.3 5.4 5.3 5.2 5.1 5.3 5.2 5.1 5.1 5.0 5.0 5.0 4.8
4.9 4.5 4.2 4.1 3.9 3.8 3.9 3.8 3.5 3.7 3.7 3.6 3.3 3.2 3.0 2.7 2.8 2.9 3.3 3.9 4.6 5.3 5.6 5.6 5.5 5.5 5.3 5.1 5.0 5.0 5.0 5.0 4.9 4.7 4.7 4.9 5.0 4.9 4.7 4.9 4.9 4.8 4.7
4.8 4.5 4.3 4.1 4.0 3.9 3.8 3.7 3.7 3.6 3.5 3.2 3.2 3.0 2.8 2.9 3.2 3.7 4.5 5.2 5.6 5.7 5.7 5.5 5.3 5.0 4.9 4.8 4.7 4.6 4.6 4.5 4.3 4.4 4.7 5.0 4.9 4.7 4.6 4.4 4.2 4.0 4.3
4.6 4.2 3.8 3.6 3.6 3.7 3.6 3.6 3.6 3.4 3.5 3.3 3.1 2.8 2.8 3.3 4.1 4.8 5.4 5.7 5.7 5.6 5.3 5.2 4.9 4.7 4.7 4.7 4.6 4.5 4.5 4.2 4.3 4.4 5.0 5.2 5.1 5.0 4.8 4.6 4.1 3.8 4.4
4.2 3.8 3.5 3.4 3.3 3.1 3.2 3.2 3.4 3.4 3.1 3.0 2.9 3.2 3.8 4.6 5.2 5.6 5.7 5.6 5.4 5.2 4.9 4.7 4.6 4.7 4.8 4.9 4.7 4.5 4.4 4.6 4.6 5.2 5.3 5.5 5.6 5.5 5.5 5.2 4.7 4.3 4.3
4.0 3.8 3.4 3.1 3.0 2.8 3.0 3.3 3.4 3.2 3.2 3.3 3.7 4.3 5.0 5.4 5.6 5.6 5.5 5.1 4.8 4.6 4.6 4.6 4.7 4.8 4.9 5.1 5.0 4.9 5.2 5.6 5.8 5.9 6.2 6.3 6.1 6.1 5.8 5.4 5.3 5.3 5.1
4.1 3.7 3.4 3.1 3.2 3.3 3.5 3.2 3.2 3.3 3.4 3.9 4.5 5.0 5.5 5.6 5.5 5.3 4.9 4.6 4.6 4.5 4.4 4.5 4.7 5.0 5.3 5.2 5.1 5.2 5.7 6.1 6.2 6.3 6.5 6.4 6.2 6.0 5.6 5.4 5.7 5.7 5.5
3.9 3.9 3.9 3.8 3.4 3.1 3.1 3.1 3.4 3.6 4.1 4.6 5.1 5.4 5.4 5.4 5.2 4.8 4.5 4.5 4.4 4.5 4.8 5.0 5.0 4.8 4.6 4.7 4.8 4.9 5.3 5.6 5.9 6.1 6.5 6.2 5.9 5.6 5.2 5.6 5.9 5.7 5.4
4.1 3.8 3.7 3.4 3.1 3.2 3.3 3.4 3.7 3.9 4.4 4.9 5.2 5.3 5.3 5.1 4.9 4.7 4.5 4.4 4.8 5.0 4.8 4.8 4.6 4.5 4.5 4.4 4.5 4.6 5.0 5.1 5.1 5.5 5.8 5.8 5.7 5.6 5.6 5.8 5.9 5.8 5.7
3.9 3.6 3.4 3.3 3.4 3.5 3.5 3.5 3.8 4.2 4.8 5.1 5.3 5.3 5.1 4.9 4.8 4.5 4.5 4.7 4.9 5.1 5.0 4.8 4.5 4.5 4.5 4.5 4.6 4.8 5.1 5.3 5.1 5.4 5.2 5.3 5.2 5.3 5.6 5.7 5.7 5.6 5.7
Wind_Speed
4 5 6 7 8 8 9 8 8 8 1 1 2 1 3 2 2 2 5 7 7 7 6 6 7 5 8 11 9 6 8 7 5 6 9 11 12 14 12 12 12 14 15
6 7 8 8 8 7 8 9 9 9 5 1 1 2 2 1 1 2 4 5 6 6 5 6 8 7 6 8 9 8 8 7 4 6 5 5 5 7 11 11 11 15 11
6 6 6 7 8 9 8 8 8 10 8 7 3 3 3 3 4 4 5 5 8 8 6 6 5 7 5 7 9 7 9 10 8 10 7 4 6 2 4 7 9 12 9
5 4 6 7 7 7 6 8 9 11 11 9 10 10 5 4 3 3 3 6 8 8 9 8 8 7 6 6 7 7 7 9 10 7 9 14 13 8 10 8 6 9 11
7 6 6 6 5 6 7 6 8 10 9 10 8 6 7 4 3 4 7 6 6 5 6 7 7 8 7 9 10 10 9 8 9 9 9 11 10 13 10 15 9 11 9
7 5 5 6 6 6 7 7 9 9 9 10 10 10 9 7 7 7 6 6 5 4 8 10 8 6 7 8 8 8 9 9 9 9 11 11 10 9 9 10 12 14 13
7 6 6 6 6 7 7 7 9 9 8 9 9 8 8 7 7 5 4 6 6 5 8 7 9 7 8 8 7 7 7 8 7 9 8 8 8 9 9 11 13 12 11
6 6 6 5 6 7 7 8 8 7 7 7 8 7 7 4 4 5 4 4 4 5 7 9 8 9 10 10 10 8 7 8 7 10 9 8 8 8 8 9 11 14 13
7 7 6 5 6 6 7 7 7 7 7 7 6 7 6 6 6 6 5 4 5 7 9 8 8 10 10 11 10 8 9 9 8 8 7 8 8 7 8 9 9 10 14
7 6 6 6 5 6 6 7 7 7 6 6 6 5 6 6 6 5 6 6 7 8 9 9 10 10 11 11 11 10 11 10 7 9 10 10 7 7 6 8 9 9 11
7 7 6 5 7 6 6 6 6 6 6 6 6 6 6 6 6 5 6 6 6 7 9 10 10 12 12 10 12 13 12 10 13 12 12 12 9 7 8 8 9 9 9
7 6 6 7 6 6 6 6 6 6 6 5 6 6 5 5 7 8 8 8 9 9 9 10 11 12 12 10 13 14 10 14 15 15 14 12 9 12 11 8 13 11 11
7 6 6 6 6 6 6 5 5 5 5 5 5 5 6 7 7 7 8 9 9 9 10 10 11 12 13 12 14 9 14 14 15 12 12 14 13 13 10 11 12 11 9
7 6 7 6 6 5 5 5 5 5 5 5 6 6 6 6 7 6 7 8 8 9 10 11 11 11 12 13 12 15 15 15 12 13 12 13 13 14 16 13 13 10 12
7 7 6 5 5 5 4 4 5 5 5 5 6 6 6 6 6 6 6 7 8 9 11 12 13 13 12 10 16 15 15 11 14 14 14 14 16 23 21 13 13 15 12
6 7 6 6 4 4 4 4 4 5 5 5 5 5 6 6 6 7 9 9 10 11 11 12 12 14 10 24 26 22 14 14 15 16 15 14 20 19 27 24 28 24 15
7 7 7 5 5 4 3 4 4 5 5 5 5 5 6 7 7 8 9 10 10 9 11 11 12 13 14 26 27 27 14 14 14 14 15 16 12 20 15 24 29 25 26
7 7 5 5 4 3 4 4 5 5 5 5 5 5 6 7 7 7 8 8 9 10 11 12 12 13 13 26 27 28 16 14 15 14 16 16 16 16 22 21 20 18 18
6 6 5 4 5 4 4 4 4 5 5 5 5 6 6 8 9 9 10 10 10 10 11 11 14 14 14 25 26 25 15 14 15 14 14 15 17 24 32 22 20 21 21
5 6 6 5 5 3 3 3 3 3 5 5 6 6 6 7 9 8 9 9 9 11 10 13 12 17 15 21 27 23 12 14 12 13 14 24 23 33 33 23 20 18 15
6 5 6 4 4 3 2 2 3 5 5 6 6 6 6 7 7 6 8 9 10 10 10 12 12 12 13 16 27 28 15 12 12 10 13 13 30 33 36 33 17 18 21
5 5 4 4 3 2 1 4 5 5 5 6 6 6 6 6 7 8 8 9 9 10 12 12 12 10 11 20 23 28 28 26 14 15 12 14 33 35 33 27 31 32 27
4 3 3 3 2 3 4 5 6 6 6 6 7 7 7 7 7 6 9 8 8 9 9 10 11 11 11 11 24 27 27 26 17 13 20 31 33 31 24 28 31 27 13
4 2 2 3 4 4 5 4 6 6 6 6 7 7 6 9 7 6 5 7 7 8 9 10 11 11 11 10 11 11 12 20 17 15 14 22 25 23 23 19 16 12 12
3 2 3 2 4 5 5 6 6 5 6 6 6 7 6 6 8 7 7 7 8 9 11 10 11 11 11 12 23 22 15 14 17 21 11 12 12 13 13 12 13 12 13
2 1 1 3 5 6 6 6 6 6 6 7 6 6 7 6 7 8 10 15 18 22 23 24 18 12 22 28 29 30 30 30 29 13 11 12 12 12 13 14 14 13 17
Wind_Direction
27 23 18 16 18 19 23 19 19 352 136 105 127 149 223 222 273 274 257 251 251 255 240 255 263 247 245 256 252 237 245 258 233 265 262 257 253 253 250 252 251 248 245
48 27 22 24 28 23 19 24 24 19 18 47 71 97 105 80 337 346 329 306 295 286 268 259 267 267 259 263 260 244 260 252 205 246 263 279 262 238 237 239 240 245 250
85 54 43 39 34 32 16 31 24 33 26 26 47 40 51 40 26 16 16 6 16 16 1 331 302 289 264 266 272 252 238 265 262 221 238 272 257 284 235 237 234 238 234
89 75 63 52 43 31 29 40 43 45 42 37 58 59 56 64 11 8 5 14 18 16 14 3 359 348 333 299 287 284 260 258 263 271 230 245 262 273 280 246 236 236 235
123 103 87 84 59 48 46 42 55 49 40 48 54 61 59 47 26 20 25 11 2 8 11 2 353 353 352 347 341 327 306 284 271 268 272 262 253 256 264 280 266 258 238
133 121 100 85 66 54 52 45 57 45 41 51 50 58 56 43 40 23 22 5 0 354 4 358 353 341 342 339 332 326 327 324 310 302 298 293 292 290 277 269 263 258 260
148 147 121 98 83 65 56 60 55 45 37 51 50 49 55 53 47 27 15 6 360 356 350 345 341 338 332 330 325 319 312 317 312 310 304 300 297 299 296 295 295 292 292
171 163 146 126 93 81 75 68 62 58 48 52 49 43 42 44 37 27 9 360 350 329 335 339 336 333 333 333 331 325 317 312 307 302 305 303 303 298 297 294 298 299 295
173 164 154 123 98 91 90 95 82 64 50 46 45 39 34 35 24 14 3 345 334 344 342 332 331 333 334 330 327 323 317 316 308 307 307 312 308 308 310 307 305 301 300
161 157 153 127 107 109 100 76 70 72 60 53 42 42 31 24 12 1 357 351 341 342 340 337 337 335 332 328 330 324 317 314 325 317 312 307 306 311 311 314 309 303 299
169 161 148 125 117 100 90 82 66 62 48 38 35 40 26 16 4 360 347 343 335 338 344 342 338 335 332 329 332 321 317 327 321 318 310 306 298 312 313 309 304 300 299
167 163 143 131 114 96 81 70 54 53 42 36 44 35 19 8 14 5 355 351 348 346 343 340 339 334 331 331 329 318 331 327 318 314 311 309 328 316 312 314 307 300 297
155 139 124 121 109 101 87 68 50 44 34 35 47 30 20 13 2 351 349 347 343 341 340 340 337 333 328 329 321 320 328 322 316 317 315 323 321 314 313 313 301 297 308
156 128 114 116 112 100 90 65 44 32 26 43 36 28 13 359 353 341 338 340 340 338 336 335 330 328 327 322 324 326 323 320 330 324 321 315 313 315 312 305 299 317 314
130 132 131 120 103 98 77 49 35 27 25 35 32 13 352 340 338 334 329 329 336 338 335 333 332 331 328 326 327 323 324 328 325 319 315 310 312 309 307 306 315 316 308
125 118 108 108 117 76 56 46 39 30 42 31 15 355 347 341 338 337 337 338 338 336 332 328 322 323 321 320 324 328 325 327 325 321 320 319 317 314 314 312 309 306 308
144 136 137 122 97 79 59 48 40 28 31 17 357 342 338 340 337 334 335 333 328 322 324 319 320 319 318 320 324 324 325 323 319 314 315 312 316 317 312 310 310 306 303
129 130 130 120 103 97 81 79 42 25 4 358 348 340 342 335 330 327 326 320 323 325 320 318 317 316 315 320 323 324 321 316 311 308 305 304 308 313 311 311 309 306 301
138 136 130 135 127 81 69 74 36 6 346 342 337 334 333 333 332 330 325 324 323 318 314 314 314 312 311 318 322 326 320 312 308 304 304 305 309 310 313 310 307 305 300
136 133 122 95 82 66 84 59 40 349 336 329 325 322 320 323 322 312 314 310 306 310 314 309 306 308 309 313 323 323 316 311 311 312 304 310 314 315 313 315 312 301 301
107 95 96 114 136 121 103 66 14 351 319 315 314 317 314 311 297 307 307 306 310 310 306 309 311 309 313 317 319 321 317 315 317 315 314 312 313 314 317 316 314 303 309
108 118 137 133 116 103 91 24 0 318 312 318 317 307 299 302 307 295 299 305 310 311 314 313 313 312 312 314 318 320 321 322 323 313 311 306 318 319 319 321 314 313 318
123 104 129 126 120 61 43 3 315 321 319 316 305 298 294 290 285 298 309 309 312 311 306 310 309 315 318 314 314 315 318 323 317 310 312 325 321 320 321 316 318 319 311
139 131 77 31 9 5 356 308 304 309 314 304 301 297 293 311 309 290 289 303 303 305 308 309 313 313 313 313 312 315 317 317 316 309 323 325 318 319 317 318 314 310 312
110 53 38 2 321 322 311 308 310 317 308 295 294 298 305 291 293 292 304 307 303 302 310 312 312 315 314 312 321 325 322 321 322 332 332 323 322 322 322 316 313 313 314
88 49 336 316 308 315 312 309 308 304 299 307 313 310 304 292 306 310 311 310 309 310 311 315 314 314 314 317 326 326 323 326 333 335 324 321 323 321 319 316 315 316 318